Regional Weather Roundup
Issued by NWS

Home | Current Version | Previous Version | Graphics & Text | Print | Product List | Glossary On
Versions: 1 2 3 4 5 6 7 8 9 10 11 12 13 14 15 16 17 18 19 20 21 22 23 24 25 26 27 28 29 30 31 32 33 34 35 36 37 38 39 40 41 42 43 44 45 46 47 48 49 50
000
ASUS43 KLSX 301259
RWRMO

WEATHER SUMMARY FOR MISSOURI
NATIONAL WEATHER SERVICE SPRINGFIELD MO
800 AM CDT TUE JUN 30 2015

NOTE: "FAIR" INDICATES FEW OR NO CLOUDS BELOW 12,000 FEET WITH NO
       SIGNIFICANT WEATHER AND/OR OBSTRUCTIONS TO VISIBILITY.
       CURRENT SKY AND/OR WEATHER CONDITIONS ARE NOT AVAILABLE FOR
       CHILLICOTHE AND FARMINGTON.

MOZ001>031-035>038-043-044-053-054-301400-
...NORTHERN AND WESTERN MISSOURI...

CITY           SKY/WX    TMP DP  RH WIND       PRES   REMARKS
KANSAS CTY INT CLOUDY    70  66  87 W5        29.95R
KANSAS C DTWN  MOSUNNY   73  67  81 SW5       29.94R
LEE`S SUMMIT   MOSUNNY   70  64  81 W6        29.95R
ST JOSEPH      SUNNY     69  68  96 CALM      29.95R FOG
CHILLICOTHE      N/A     71  67  87 CALM      29.92F
KIRKSVILLE     SUNNY     68  63  84 W6        29.91S

$$
MOZ066>068-077>081-088>096-101>105-301400-
...SOUTHWEST MISSOURI...

CITY           SKY/WX    TMP DP  RH WIND       PRES   REMARKS
SPRINGFIELD    SUNNY     71  62  73 SW8       29.98S
JOPLIN         MOSUNNY   72  66  81 SW5       29.99R

$$
MOZ032>034-039>042-045>050-055>058-069>072-301400-
...CENTRAL MISSOURI...

CITY           SKY/WX    TMP DP  RH WIND       PRES   REMARKS
COLUMBIA       SUNNY     70  67  90 SW3       29.93S
JEFFERSON CITY SUNNY     69  67  93 CALM      29.92S
ROLLA          SUNNY     68  66  93 SW3       29.93F
SEDALIA        SUNNY     72  66  81 W3        29.94S
OSAGE BEACH    PTSUNNY   72  64  78 W5        29.95S

$$
MOZ051-052-059>065-301400-
...EAST CENTRAL MISSOURI...

CITY           SKY/WX    TMP DP  RH WIND       PRES   REMARKS
ST LOUIS INTL  SUNNY     74  66  76 W5        29.90S
SPIRIT OF STL  SUNNY     71  69  93 CALM      29.89S
ST CHARLES     SUNNY     71  68  90 W5        29.88S

$$
MOZ072>076-082>087-097>100-106>115-301400-
...SOUTH CENTRAL AND SOUTHEAST MISSOURI...

CITY           SKY/WX    TMP DP  RH WIND       PRES   REMARKS
CAPE GIRARDEAU SUNNY     73  68  84 W5        29.91R
FARMINGTON     SUNNY     70  64  83 W3        29.97S
POPLAR BLUFF   SUNNY     72  66  81 W3        29.91S
WEST PLAINS    SUNNY     70  63  78 W6        29.99R

$$



USA.gov is the U.S. government's official web portal to all federal, state and local government web resources and services.